Blue Lake 5K Run




10/16/2010
3.1 Miles

Click for Age Graded Results   


PlaceLast NameAgeGenderCityStateTimePaceCATAge PlaceGender PlaceClubCR
1 Ryan Heal 32M PortlandOR00:17:440:05:43M711 
2 Gareth Price 39M PortlandOR00:19:140:06:12M812 
3 Jeff Trapold 48MGreshamOR00:19:290:06:17M1013 
4 Alan Beck 64MWarrentonOR00:20:010:06:28M1314 
5 Rich Feucht 35MGreshamOR00:20:170:06:33M825 
6 Bill Hedges 60M PortlandOR00:20:390:06:40M1326 
7 Vince Thekkedom 37MHappy ValleyOR00:20:430:06:41M837 
8 Charlie Robertson 7M PortlandOR00:20:520:06:44M218 
9 Mike Andrews 53MBoringOR00:21:200:06:53M1119 
10 Brian Hall 52MGreshamOR00:21:220:06:53M11210 
11 Bill Koehler 70MMilwaukieOR00:21:260:06:55M15111 
12 Andrea Anderson 39FTroutdaleOR00:22:320:07:16F811 
13 Galen Ohmart 52M PortlandOR00:22:420:07:19M11312 
14 Marc Smith 40MLacenterWA00:22:560:07:24M9113 
15 George Watson 52M Lake OswegoOR00:23:010:07:26M11414 
16 Chris Mesker 41M PortlandOR00:23:040:07:26M9215 
17 Sean Richardson 12MGreshamOR00:23:180:07:31M3116 
18 Peter Richardson 46MGreshamOR00:23:190:07:31M10217 
19 Conor Medley 31M PortlandOR00:23:350:07:37M7218 
20 Elizabeth Turner 28FHood RiverOR00:23:400:07:38F612 
21 Gary Reddaway 70MOregon CityOR00:23:460:07:40M15219 
22 Levi Miles 11M PortlandOR00:23:470:07:40M3220 
23 Melissa Robertson 40F PortlandOR00:23:530:07:42F913 
24 Brian Dunlap 35MMolallaOR00:23:580:07:44M8421 
25 Roger Mckayjr 51MAlbanyOR00:24:070:07:47M11522 
26 Mike Harding 21MTroutdaleOR00:24:080:07:47M5123 
27 Jim Trindle 43M BeavertonOR00:24:190:07:51M9324 
28 Whitney Smith 16FLacenterWA00:24:190:07:51F414 
29 Rachel Lupole 28FFairviewOR00:24:420:07:58F625 
30 Kevin Guaspari 42MOregon CityOR00:24:590:08:04M9425 
31 Chris Iverson 39M BeavertonOR00:25:020:08:05M8526 
32 Lee Wriggle 40MNorth PlainsOR00:25:150:08:09M9527 
33 Marilu Semph 52F BeavertonOR00:25:300:08:13F1116 
34 Kevin Edwardsi 53M VancouverWA00:25:400:08:17M11628 
35 Jamie Hohler 28FSandyOR00:25:430:08:18F637 
36 Jremiah Morley 25M PortlandOR00:25:490:08:20M6129 
37 Gordon Noel 69M PortlandOR00:25:550:08:22M14130 
38 Stewart Mustsuo 24MTroutdaleOR00:26:010:08:23M5231 
39 Brian Nicol 59MCorvallisOR00:26:030:08:24M12132 
40 Ethan Miles 14M PortlandOR00:26:050:08:25M3333 
41 Marisa Messina 34F PortlandOR00:26:060:08:25F718 
42 Ken Ogden 74MSalemOR00:26:280:08:32M15334 
43 Liz Miller 39F PortlandOR00:26:350:08:35F829 
44 Karen Beck 64FWarrentonOR00:26:360:08:35F13110 
45 Leo Lee 32MKing CityOR00:27:050:08:44M7335 
46 Robert Courtney 36MDamascusOR00:27:080:08:45M8636 
47 Maggie Rhem 35F BeavertonOR00:27:110:08:46F8311 
48 David Pattee 32M PortlandOR00:27:210:08:49M7437 
49 Clint Daeuble 37M PortlandOR00:27:240:08:50M8738 
50 Mark Mathews 53M VancouverWA00:27:280:08:51M11739 
51 Beckie Tempel 35F BeavertonOR00:27:290:08:52F8412 
52 Katherine Orr 32FSaint HelensOR00:27:330:08:53F7213 
53 Chris Esquivel 24MClackamasOR00:27:340:08:54M5340 
54 Scott Boe 51MWest LinnOR00:27:340:08:54M11841 
55 Susan Boe 48FWest LinnOR00:27:360:08:54F10114 
56 Jeff Sikorski 47MGreshamOR00:27:460:08:57M10342 
57 Shannon Vellutini 43FNehalemOR00:27:470:08:58F9215 
58 Debi Steffensen 55FPortlandCA00:27:480:08:58F12116 
59 Trevor Hildreth 20MTroutdaleOR00:27:500:08:59M5443 
60 Luis Humala 18MTroutdaleOR00:27:510:08:59M4144 
61 Chris Baker 52MRoseburgOR00:28:130:09:06M11945 
62 Megan Bailey 12F VancouverWA00:28:190:09:08F3117 
63 Deirdre Trindle 45F BeavertonOR00:28:220:09:09F10218 
64 Clayton Tikka 35M VancouverWA00:28:230:09:09M8846 
65 Len Edholm 71MWest LinnOR00:28:270:09:11M15447 
66 Jesse Sieminski 22FGrand RapidsMI00:28:350:09:13F5119 
67 Brian Kehoe 24MGrand RapidsMI00:28:350:09:13M5548 
68 Michelle Strick 29FHillsboroOR00:29:010:09:22F6520 
69 Korina Leclerc 25FSandyOR00:29:010:09:22F6421 
70 Laina Mcginn 27FPort TownsendWA00:29:050:09:23F6622 
71 Jack Keener 79M PortlandOR00:29:100:09:25M16149 
72 Kristy Pisarczyk 32F VancouverWA00:29:120:09:25F7323 
73 Ariane Donovan 32FSandyOR00:29:290:09:31F7424 
74 Tiffany Maydew 37FTroutdaleOR00:29:370:09:33F8525 
75 Stan Danielson 60MGreshamOR00:29:370:09:33M13350 
76 Margaret Hite 31F PortlandOR00:29:440:09:36F7526 
77 Megan Brown 32FLa VerniaTX00:29:540:09:39F7627 
78 Janaye Stirniman 13F VancouverWA00:30:080:09:43F3228 
79 John Stirniman 53M VancouverWA00:30:110:09:44M111051 
80 Cheryle Ross 43F Lake OswegoOR00:30:190:09:47F9329 
81 Valerie Schaller 65FRhododendronOR00:30:200:09:47F14130 
82 Tiffany Wright 39FGreshamOR00:30:410:09:54F8631 
83 Tina Monson 44FHappy ValleyOR00:30:460:09:55F9432 
84 Heather Ruden 42F PortlandOR00:30:470:09:56F9533 
85 Elizabeth Garrison 38F VancouverWA00:30:540:09:58F8734 
86 Kevin Histed 37M PortlandOR00:31:010:10:00M8952 
87 Greg Wallaert 41M PortlandOR00:31:160:10:05M9653 
88 Kayla Thompson 10F  00:31:200:10:06F3335 
89 Joseph Hogan 73M VancouverWA00:31:300:10:10M15554 
90 Kathy Gardiner 68FForest GroveOR00:31:350:10:11F14236 
91 Ralph Brown 66MCorneliusOR00:31:370:10:12M14255 
92 Valerie Harjo 49FClackamasOR00:31:400:10:13F10337 
93 Darrin Stuva 42MGreshamOR00:31:420:10:13M9756 
94 Rajal Cohen 41F BeavertonOR00:31:560:10:18F9638 
95 Monica Collins 37F BeavertonOR00:32:140:10:24F8839 
96 Edward Lilly 74M PortlandOR00:32:210:10:26M15657 
97 Kristin Burrup 35F VancouverWA00:32:230:10:27F8940 
98 Julie Thompson 33F VancouverWA00:32:240:10:27F7741 
99 Liz Style 39FRidgefieldWA00:32:320:10:30F81042 
100 Joan Fletcher 40F PortlandOR00:32:330:10:30F9743 
101 Shannon Mcgraw 23F PortlandOR00:32:370:10:31F5244 
102 Julie Patterson 28FWest LinnOR00:32:380:10:31F6745 
103 Sherri Wallaert 41F PortlandOR00:32:480:10:35F9846 
104 Cindy Motta 39FOaklandCA00:32:510:10:36F81147 
105 Teresa Ohmart 40F PortlandOR00:33:020:10:39F9948 
106 Kellie Hollister 34F VancouverWA00:33:030:10:40F7849 
107 Marlowe Tikka 34F VancouverWA00:33:050:10:40F7950 
108 Marilyn Lewis 57F Lake OswegoOR00:33:100:10:42F12251 
109 Sheila Painter 50F PortlandOR00:33:130:10:43F11252 
110 Cara Stuva 40MGreshamOR00:33:320:10:49M9858 
111 Mychelle Ashlock 42FWilsonvilleOR00:33:440:10:53F91053 
112 Jana Hammer 42FGresahmOR00:33:510:10:55F91154 
113 Angie Allinger 34FSandyOR00:33:530:10:56F71055 
114 Chelsea Spanier 15FSandyOR00:33:530:10:56F4256 
115 Tracy Baker 48FRoseburgOR00:33:550:10:56F10457 
116 Eva Miller 44FPdxOR00:33:560:10:57F91258 
117 Ted Schuh 45M PortlandOR00:33:570:10:57M10459 
118 Brad Bronchetti 42M VancouverWA00:34:190:11:04M9960 
119 John Jones 43M PortlandOR00:34:240:11:06M91061 
120 Alicia Stankus 31FDamascusOR00:34:390:11:11F71159 
121 Jacci Jones 43F PortlandOR00:34:420:11:12F91360 
122 Carol Reynolds 50FTroutdaleOR00:35:160:11:22F11361 
123 Michele Christensen 44F PortlandOR00:35:270:11:26F91462 
124 Nancy Thompson 36FSandyOR00:35:310:11:28F81263 
125 Nathan Smith 11M PortlandOR00:35:340:11:28M3462 
126 Nicole Boucher 34FHillsboroOR00:35:380:11:30F71264 
127 Mindy Fredericksen 33FRichlandWA00:35:390:11:30F71365 
128 Anna Verdieck 42FTroutdaleOR00:35:430:11:31F91566 
129 James Smith 19MTroutdaleOR00:35:440:11:32M4263 
130 Kathy Stevens 40F PortlandOR00:35:450:11:32F91667 
131 Judy Harman 60FGladstoneOR00:35:540:11:35F13268 
132 Clarissa Schuh 43F PortlandOR00:35:560:11:35F91769 
133 Joy Farley 36FMilwuakieOR00:36:250:11:45F81370 
134 Nick Prouty 23MMcminnvilleOR00:36:290:11:46M5664 
135 Lisa Harket 39F VancouverWA00:36:380:11:49F81471 
136 Lisa Wright 39FYamhillOR00:36:410:11:50F81572 
137 Juanita Lynn 25F PortlandOR00:36:450:11:51F6873 
138 Tammy Brightbill 39FLa CenterWA00:36:470:11:52F81674 
139 Jeannine Downey 43F BeavertonOR00:37:030:11:57F91875 
140 Lance Simonds 34MYamhillOR00:37:080:11:59M7565 
141 Kelli Simonds 34FYamhillOR00:37:090:11:59F71476 
142 Diana Simmons 39FAlohaOR00:37:120:12:00F81777 
143 Gary Hamblet 75M Lake OswegoOR00:37:360:12:08M16266 
144 George Lewis 59M Lake OswegoOR00:37:370:12:08M12267 
145 Meg Dumez 29F PortlandOR00:37:370:12:08F6978 
146 Robyn Dunlap 37FMolallaOR00:37:430:12:10F81879 
147 Kell Paine 36F Battle GroundWA00:37:530:12:13F81980 
148 Cecelia Antonio 53F VancouverWA00:38:000:12:16F11481 
149 Tari Magnussen 39F VancouverWA00:38:010:12:16F82082 
150 Philip Livesley 68M PortlandOR00:38:060:12:17M14368 
151 Juli Smythe 50F PortlandOR00:38:200:12:22F11583 
152 Kylie Hammer 14FGresahmOR00:38:220:12:22F3484 
153 Andy Grover 35M PortlandOR00:38:230:12:23M81069 
154 Kristen Beck 34FGreshamOR00:38:240:12:23F71585 
155 Deanna Steiner 35FHillsboroOR00:38:500:12:32F82186 
156 Cheryl Scheirman 40FSherwoodOR00:38:560:12:34F91987 
157 Addison Walker 9F VancouverWA00:39:050:12:36F2188 
158 Nathan Vanwagoner 30M VancouverWA00:39:050:12:36M7670 
159 Julie Stevens 32F BeavertonOR00:39:130:12:39F71689 
160 Julie Stevens 32F BeavertonOR00:39:150:12:40F71790 
161 Denise Tuesta 27F PortlandOR00:39:150:12:40F61191 
162 Heather Sorensen 26F PortlandOR00:39:150:12:40F61092 
163 Bonny Benton 52F BeavertonOR00:39:410:12:48F11693 
164 Patsy Casey 54FBoringOR00:39:430:12:49F11794 
165 Thomas Semph 62M BeavertonOR00:39:570:12:53M13471 
166 John Hupala 59MGreshamOR00:39:590:12:54M12372 
167 Rob Eckerson 80M PortlandOR00:40:010:12:54M17173 
168 Lee Fan 62M PortlandOR00:40:010:12:54M13574 
169 Stacy England 33F PortlandOR00:40:220:13:01F71895 
170 Sonja Hernandez 18FTroutdaleOR00:40:390:13:07F4396 
171 Barbara Wriggle 67FNorth PlainsOR00:40:450:13:09F14397 
172 Angie Avery 30F VancouverWA00:40:470:13:09F71998 
173 Carole Reiley 65F PortlandOR00:40:580:13:13F14499 
174 William Girotti 23M PortlandOR00:41:220:13:21M5775 
175 Carolyn Mcrory 30F PortlandOR00:42:550:13:51F720100 
176 Valah Steffen-wittwe 29FHappy ValleyOR00:42:570:13:51F612101 
177 Robyn Cole 40FSiletzOR00:42:590:13:52F920102 
178 Candace Herrill 57FGreshamOR00:43:050:13:54F123103 
179 Mariane Brightbill 63FCathlametWA00:43:280:14:01F133104 
180 Bill Henry 75MSalemOR00:44:080:14:14M16376 
181 Caroljoy Craig 69F PortlandOR00:44:090:14:14F145105 
182 Tara Denison 32F BeavertonOR00:44:230:14:19F721106 
183 Carrie Bob 46F BeavertonOR00:44:230:14:19F105107 
184 Cheryl Deshaw 41FMilwaukieOR00:44:390:14:24F921108 
185 Eyvonne Villarreal 64FYuba CityCA00:44:490:14:27F134109 
186 Lisa Landon 54FGrass ValleyCA00:45:300:14:41F118110 
187 Tonya Mathews 35F VancouverWA00:46:270:14:59F822111 
188 Kc Meyers 7M  00:47:530:15:27M2277 
189 Eric Hall 41M PortlandOR00:47:550:15:27M91178 
190 Gretchen Meyers 32FNorth PlainsOR00:47:550:15:27F722112 
191 Barb Winans 60FAlohaOR00:48:000:15:29F135113 
192 Keri Harker 31FFairviewOR00:48:000:15:29F723114 
193 Shawna Lewis 37F BeavertonOR00:48:220:15:36F823115 
194 Kaitlyn Coovert 17FGresahmOR00:48:370:15:41F44116 
195 Jessyca Davis 18FCorvallisOR00:49:490:16:04F45117 
196 Kathryn Tucker 27FKeizerOR00:50:030:16:09F613118 
197 Wardy Joseph 29FClackamasOR00:50:490:16:23F614119 
198 Sonia Wehbey 23FHappy ValleyOR00:50:490:16:24F53120 
199 Pete Winans 63MAlohaOR00:54:460:17:40M13679 
200 Donald Jones 50MWoodburnOR00:54:490:17:41M111180 
1 2

Race List    Reports    Home



Click Here for a complete race list

If you have any suggestion, comments, corrections or if you want your name removed from the database, Please Email Russ at RaceResults@comcast.net
Be Patient. Corrections can take up to 2 week to process. Most mistakes are caused by sloppy handwriting. Be considerate by always writing neatly on you registration form. It helps you by having correct database results and it helps me by not having to make the corrections.